This is the latest recevied weather packets stored in our database for station/object LW9ERO-3. If no packets are shown the sender has not sent any weather packets the latest 10 day(s).
| Time | Temp. | Humidity | Pressure | Rain* | Wind** | Luminosity | Snow |
|---|---|---|---|---|---|---|---|
| 1787864044 | 17.22° C | 60% | 1006.2 hPa | 0 mm | - | - | - |
| 1787863504 | 17.22° C | 59% | 1006.3 hPa | 0 mm | - | - | - |
| 1787862963 | 17.22° C | 59% | 1006 hPa | 0 mm | - | - | - |
| 1787862424 | 17.22° C | 58% | 1005.7 hPa | 0 mm | - | - | - |
| 1787861884 | 17.22° C | 56% | 1005.8 hPa | 0 mm | - | - | - |
| 1787861343 | 17.22° C | 56% | 1006.2 hPa | 0 mm | - | - | - |
| 1787860804 | 17.22° C | 55% | 1006.2 hPa | 0 mm | - | - | - |
| 1787860443 | 17.22° C | 56% | 1006.1 hPa | 0 mm | - | - | - |
| 1787859903 | 17.22° C | 58% | 1006 hPa | 0 mm | - | - | - |
| 1787859363 | 17.22° C | 60% | 1005.8 hPa | 0 mm | - | - | - |
| 1787858823 | 17.22° C | 60% | 1005.8 hPa | 0 mm | - | - | - |
| 1787858283 | 17.22° C | 60% | 1006.1 hPa | 0 mm | - | - | - |
| 1787857743 | 17.22° C | 61% | 1006.4 hPa | 0 mm | - | - | - |
| 1787857204 | 17.22° C | 62% | 1005.9 hPa | 0 mm | - | - | - |
| 1787856843 | 17.22° C | 63% | 1005.8 hPa | 0 mm | - | - | - |
| 1787856303 | 17.22° C | 66% | 1006.6 hPa | 0 mm | - | - | - |
| 1787855763 | 16.67° C | 67% | 1006.1 hPa | 0 mm | - | - | - |
| 1787855224 | 16.67° C | 69% | 1005.5 hPa | 0 mm | - | - | - |
| 1787854684 | 16.67° C | 69% | 1005.2 hPa | 0 mm | - | - | - |
| 1787854143 | 16.67° C | 69% | 1006.6 hPa | 0 mm | - | - | - |
| 1787853603 | 16.11° C | 69% | 1006.9 hPa | 0 mm | - | - | - |
| 1787853243 | 16.11° C | 69% | 1006.2 hPa | 0 mm | - | - | - |
| 1787852704 | 16.11° C | 70% | 1005.8 hPa | 0 mm | - | - | - |
| 1787852163 | 16.67° C | 71% | 1006.1 hPa | 0 mm | - | - | - |
| 1787851624 | 16.11° C | 72% | 1006.2 hPa | 0 mm | - | - | - |
* Rain latest hour (hover to see other rain measurements)
** Current wind speed in m/s (hover to see current wind gust speed)